Time,TemperatureF,DewpointF,PressureIn,WindDirection,WindDirectionDegrees,WindSpeedMPH,WindSpeedGustMPH,Humidity,HourlyPrecipIn,Conditions,Clouds,dailyrainin,SolarRadiationWatts/m^2,SoftwareType,DateUTC
2013-04-09 00:03:00,32.0,31.0,-100.00,East,95,0.0,2.0,97,0.00,,,0.00,0.000000,,2013-04-09 04:03:00,
2013-04-09 00:12:00,32.0,32.0,-100.00,SW,226,0.0,3.0,98,0.00,,,0.00,0.000000,,2013-04-09 04:12:00,
2013-04-09 00:43:00,32.0,32.0,-100.00,SW,226,0.0,3.0,98,0.00,,,0.00,0.000000,,2013-04-09 04:43:00,
2013-04-09 00:53:00,32.0,32.0,-100.00,SW,226,0.0,3.0,98,0.00,,,0.00,0.000000,,2013-04-09 04:53:00,
2013-04-09 01:02:00,32.0,32.0,-100.00,SW,226,0.0,3.0,98,0.00,,,0.00,0.000000,,2013-04-09 05:02:00,
2013-04-09 01:12:00,32.0,32.0,-100.00,WNW,301,0.0,2.0,98,0.00,,,0.00,0.000000,,2013-04-09 05:12:00,
2013-04-09 01:32:00,32.0,32.0,-100.00,WNW,301,0.0,2.0,98,0.00,,,0.00,0.000000,,2013-04-09 05:32:00,
2013-04-09 01:43:00,32.0,32.0,-100.00,WNW,301,0.0,2.0,98,0.00,,,0.00,0.000000,,2013-04-09 05:43:00,
2013-04-09 01:52:00,32.0,32.0,-100.00,WNW,301,0.0,2.0,98,0.00,,,0.00,0.000000,,2013-04-09 05:52:00,
2013-04-09 02:02:00,32.0,32.0,-100.00,WNW,301,0.0,2.0,98,0.00,,,0.00,0.000000,,2013-04-09 06:02:00,
2013-04-09 02:12:00,33.0,32.0,-100.00,West,260,0.0,3.0,98,0.00,,,0.00,0.000000,,2013-04-09 06:12:00,
2013-04-09 02:32:00,33.0,32.0,-100.00,West,260,0.0,3.0,98,0.00,,,0.00,0.000000,,2013-04-09 06:32:00,
2013-04-09 02:42:00,33.0,32.0,-100.00,West,260,0.0,3.0,98,0.00,,,0.00,0.000000,,2013-04-09 06:42:00,
2013-04-09 02:52:00,33.0,32.0,-100.00,West,260,0.0,3.0,98,0.00,,,0.00,0.000000,,2013-04-09 06:52:00,
2013-04-09 03:02:00,33.0,32.0,-100.00,West,260,0.0,3.0,98,0.00,,,0.00,0.000000,,2013-04-09 07:02:00,
2013-04-09 03:12:00,33.0,32.0,-100.00,WSW,245,1.0,3.0,98,0.00,,,-99.99,0.000000,,2013-04-09 07:12:00,
2013-04-09 03:32:00,33.0,32.0,-100.00,WSW,245,1.0,3.0,98,0.00,,,-99.99,0.000000,,2013-04-09 07:32:00,
2013-04-09 03:42:00,33.0,32.0,-100.00,WSW,245,1.0,3.0,98,0.00,,,-99.99,0.000000,,2013-04-09 07:42:00,
2013-04-09 03:52:00,33.0,32.0,-100.00,WSW,245,1.0,3.0,98,0.00,,,-99.99,0.000000,,2013-04-09 07:52:00,
2013-04-09 04:03:00,33.0,32.0,-100.00,WSW,245,1.0,3.0,98,0.00,,,-99.99,0.000000,,2013-04-09 08:03:00,
2013-04-09 04:12:00,33.0,32.0,-100.00,SE,137,0.0,1.0,98,0.00,,,0.00,0.000000,,2013-04-09 08:12:00,
2013-04-09 04:42:00,33.0,32.0,-100.00,SE,137,0.0,1.0,98,0.00,,,0.00,0.000000,,2013-04-09 08:42:00,
2013-04-09 04:52:00,33.0,32.0,-100.00,SE,137,0.0,1.0,98,0.00,,,0.00,0.000000,,2013-04-09 08:52:00,
2013-04-09 05:02:00,33.0,32.0,-100.00,SE,137,0.0,1.0,98,0.00,,,0.00,0.000000,,2013-04-09 09:02:00,
2013-04-09 05:12:00,33.0,32.0,-100.00,SE,138,0.0,2.0,98,0.00,,,0.00,0.000000,,2013-04-09 09:12:00,
2013-04-09 05:44:00,33.0,32.0,-100.00,SE,138,0.0,2.0,98,0.00,,,0.00,0.000000,,2013-04-09 09:44:00,
2013-04-09 05:53:00,33.0,32.0,-100.00,SE,138,0.0,2.0,98,0.00,,,0.00,0.000000,,2013-04-09 09:53:00,
2013-04-09 06:03:00,33.0,32.0,-100.00,SE,138,0.0,2.0,98,0.00,,,0.00,0.000000,,2013-04-09 10:03:00,
2013-04-09 06:12:00,33.0,32.0,-100.00,SW,214,0.0,2.0,98,0.00,,,0.00,0.000000,,2013-04-09 10:12:00,
2013-04-09 06:33:00,33.0,32.0,-100.00,SW,214,0.0,2.0,98,0.00,,,0.00,0.000000,,2013-04-09 10:33:00,
2013-04-09 06:43:00,33.0,32.0,-100.00,SW,214,0.0,2.0,98,0.00,,,0.00,0.000000,,2013-04-09 10:43:00,
2013-04-09 06:53:00,33.0,32.0,-100.00,SW,214,0.0,2.0,98,0.00,,,0.00,0.000000,,2013-04-09 10:53:00,
2013-04-09 07:02:00,33.0,32.0,-100.00,SW,214,0.0,2.0,98,0.00,,,0.00,0.000000,,2013-04-09 11:02:00,
2013-04-09 07:12:00,33.0,32.0,-100.00,SSE,167,2.0,3.0,98,0.00,,,0.00,0.000000,,2013-04-09 11:12:00,
2013-04-09 07:32:00,33.0,32.0,-100.00,SSE,167,2.0,3.0,98,0.00,,,0.00,0.000000,,2013-04-09 11:32:00,
2013-04-09 07:42:00,33.0,32.0,-100.00,SSE,167,2.0,3.0,98,0.00,,,0.00,0.000000,,2013-04-09 11:42:00,
2013-04-09 07:52:00,33.0,32.0,-100.00,SSE,167,2.0,3.0,98,0.00,,,0.00,0.000000,,2013-04-09 11:52:00,
2013-04-09 08:02:00,33.0,32.0,-100.00,SSE,167,2.0,3.0,98,0.00,,,0.00,0.000000,,2013-04-09 12:02:00,
2013-04-09 08:12:00,33.0,32.0,-100.00,SE,130,2.0,4.0,98,0.00,,,0.00,12.000000,,2013-04-09 12:12:00,
2013-04-09 08:33:00,33.0,32.0,-100.00,SE,130,2.0,4.0,98,0.00,,,0.00,12.000000,,2013-04-09 12:33:00,
2013-04-09 08:43:00,33.0,32.0,-100.00,SE,130,2.0,4.0,98,0.00,,,0.00,12.000000,,2013-04-09 12:43:00,
2013-04-09 08:53:00,33.0,32.0,-100.00,SE,130,2.0,4.0,98,0.00,,,0.00,12.000000,,2013-04-09 12:53:00,
2013-04-09 09:02:00,33.0,32.0,-100.00,SE,130,2.0,4.0,98,0.00,,,0.00,12.000000,,2013-04-09 13:02:00,
2013-04-09 09:12:00,34.0,34.0,-100.00,NNE,15,2.0,4.0,98,0.00,,,0.00,38.000000,,2013-04-09 13:12:00,
2013-04-09 09:33:00,34.0,34.0,-100.00,NNE,15,2.0,4.0,98,0.00,,,0.00,38.000000,,2013-04-09 13:33:00,
2013-04-09 09:43:00,34.0,34.0,-100.00,NNE,15,2.0,4.0,98,0.00,,,0.00,38.000000,,2013-04-09 13:43:00,
2013-04-09 09:53:00,34.0,34.0,-100.00,NNE,15,2.0,4.0,98,0.00,,,0.00,38.000000,,2013-04-09 13:53:00,
2013-04-09 10:03:00,34.0,34.0,-100.00,NNE,15,2.0,4.0,98,0.00,,,0.00,38.000000,,2013-04-09 14:03:00,
2013-04-09 10:12:00,35.0,34.0,-100.00,North,351,3.0,5.0,98,0.00,,,0.00,102.000000,,2013-04-09 14:12:00,
2013-04-09 10:43:00,35.0,34.0,-100.00,North,351,3.0,5.0,98,0.00,,,0.00,102.000000,,2013-04-09 14:43:00,
2013-04-09 10:52:00,35.0,34.0,-100.00,North,351,3.0,5.0,98,0.00,,,0.00,102.000000,,2013-04-09 14:52:00,
2013-04-09 11:02:00,35.0,34.0,-100.00,North,351,3.0,5.0,98,0.00,,,0.00,102.000000,,2013-04-09 15:02:00,
2013-04-09 11:12:00,36.0,35.0,-100.00,North,3,2.0,6.0,97,0.00,,,0.00,133.000000,,2013-04-09 15:12:00,
2013-04-09 11:34:00,36.0,35.0,-100.00,North,3,2.0,6.0,97,0.00,,,0.00,133.000000,,2013-04-09 15:34:00,
2013-04-09 11:44:00,36.0,35.0,-100.00,North,3,2.0,6.0,97,0.00,,,0.00,133.000000,,2013-04-09 15:44:00,
2013-04-09 11:53:00,36.0,35.0,-100.00,North,3,2.0,6.0,97,0.00,,,0.00,133.000000,,2013-04-09 15:53:00,
2013-04-09 12:03:00,36.0,35.0,-100.00,North,3,2.0,6.0,97,0.00,,,0.00,133.000000,,2013-04-09 16:03:00,
2013-04-09 12:12:00,38.0,36.0,-100.00,NNE,15,3.0,6.0,94,0.00,,,-99.99,156.000000,,2013-04-09 16:12:00,
2013-04-09 12:34:00,38.0,36.0,-100.00,NNE,15,3.0,6.0,94,0.00,,,-99.99,156.000000,,2013-04-09 16:34:00,
2013-04-09 12:43:00,38.0,36.0,-100.00,NNE,15,3.0,6.0,94,0.00,,,-99.99,156.000000,,2013-04-09 16:43:00,
2013-04-09 12:54:00,38.0,36.0,-100.00,NNE,15,3.0,6.0,94,0.00,,,-99.99,156.000000,,2013-04-09 16:54:00,
2013-04-09 13:02:00,38.0,36.0,-100.00,NNE,15,3.0,6.0,94,0.00,,,-99.99,156.000000,,2013-04-09 17:02:00,
2013-04-09 13:12:00,38.0,34.0,-100.00,NNE,17,7.0,13.0,85,0.00,,,0.00,197.000000,,2013-04-09 17:12:00,
2013-04-09 13:33:00,38.0,34.0,-100.00,NNE,17,7.0,13.0,85,0.00,,,0.00,197.000000,,2013-04-09 17:33:00,
2013-04-09 13:43:00,38.0,34.0,-100.00,NNE,17,7.0,13.0,85,0.00,,,0.00,197.000000,,2013-04-09 17:43:00,
2013-04-09 13:54:00,38.0,34.0,-100.00,NNE,17,7.0,13.0,85,0.00,,,0.00,197.000000,,2013-04-09 17:54:00,
2013-04-09 14:02:00,38.0,34.0,-100.00,NNE,17,7.0,13.0,85,0.00,,,0.00,197.000000,,2013-04-09 18:02:00,
2013-04-09 14:12:00,33.0,29.0,-100.00,North,359,9.0,18.0,86,0.00,,,0.00,157.000000,,2013-04-09 18:12:00,
2013-04-09 14:33:00,33.0,29.0,-100.00,North,359,9.0,18.0,86,0.00,,,0.00,157.000000,,2013-04-09 18:33:00,
2013-04-09 14:43:00,33.0,29.0,-100.00,North,359,9.0,18.0,86,0.00,,,0.00,157.000000,,2013-04-09 18:43:00,
2013-04-09 14:53:00,33.0,29.0,-100.00,North,359,9.0,18.0,86,0.00,,,0.00,157.000000,,2013-04-09 18:53:00,
2013-04-09 15:02:00,33.0,29.0,-100.00,North,359,9.0,18.0,86,0.00,,,0.00,157.000000,,2013-04-09 19:02:00,
2013-04-09 15:12:00,34.0,29.0,-100.00,North,359,7.0,16.0,83,0.00,,,0.00,243.000000,,2013-04-09 19:12:00,
2013-04-09 15:53:00,34.0,29.0,-100.00,North,359,7.0,16.0,83,0.00,,,0.00,243.000000,,2013-04-09 19:53:00,
2013-04-09 16:02:00,34.0,29.0,-100.00,North,359,7.0,16.0,83,0.00,,,0.00,243.000000,,2013-04-09 20:02:00,
2013-04-09 16:12:00,32.0,27.0,-100.00,North,10,7.0,18.0,83,0.00,,,0.00,148.000000,,2013-04-09 20:12:00,
2013-04-09 16:44:00,32.0,27.0,-100.00,North,10,7.0,18.0,83,0.00,,,0.00,148.000000,,2013-04-09 20:44:00,
2013-04-09 16:53:00,32.0,27.0,-100.00,North,10,7.0,18.0,83,0.00,,,0.00,148.000000,,2013-04-09 20:53:00,
2013-04-09 17:02:00,32.0,27.0,-100.00,North,10,7.0,18.0,83,0.00,,,0.00,148.000000,,2013-04-09 21:02:00,
2013-04-09 17:12:00,31.0,26.0,-100.00,North,0,8.0,19.0,81,0.00,,,0.00,213.000000,,2013-04-09 21:12:00,
2013-04-09 17:53:00,31.0,26.0,-100.00,North,0,8.0,19.0,81,0.00,,,0.00,213.000000,,2013-04-09 21:53:00,
2013-04-09 18:03:00,31.0,26.0,-100.00,North,0,8.0,19.0,81,0.00,,,0.00,213.000000,,2013-04-09 22:03:00,
2013-04-09 18:12:00,31.0,25.0,-100.00,North,358,8.0,18.0,78,0.00,,,-99.99,130.000000,,2013-04-09 22:12:00,
2013-04-09 18:33:00,31.0,25.0,-100.00,North,358,8.0,18.0,78,0.00,,,-99.99,130.000000,,2013-04-09 22:33:00,
2013-04-09 18:43:00,31.0,25.0,-100.00,North,358,8.0,18.0,78,0.00,,,-99.99,130.000000,,2013-04-09 22:43:00,
2013-04-09 18:53:00,31.0,25.0,-100.00,North,358,8.0,18.0,78,0.00,,,-99.99,130.000000,,2013-04-09 22:53:00,
2013-04-09 19:03:00,31.0,25.0,-100.00,North,358,8.0,18.0,78,0.00,,,-99.99,130.000000,,2013-04-09 23:03:00,
2013-04-09 19:12:00,31.0,24.0,-100.00,North,3,8.0,17.0,75,0.00,,,0.00,136.000000,,2013-04-09 23:12:00,
2013-04-09 19:33:00,31.0,24.0,-100.00,North,3,8.0,17.0,75,0.00,,,0.00,136.000000,,2013-04-09 23:33:00,
2013-04-09 19:43:00,31.0,24.0,-100.00,North,3,8.0,17.0,75,0.00,,,0.00,136.000000,,2013-04-09 23:43:00,
2013-04-09 19:53:00,31.0,24.0,-100.00,North,3,8.0,17.0,75,0.00,,,0.00,136.000000,,2013-04-09 23:53:00,
2013-04-09 20:03:00,31.0,24.0,-100.00,North,3,8.0,17.0,75,0.00,,,0.00,136.000000,,2013-04-10 00:03:00,
2013-04-09 20:12:00,29.0,22.0,-100.00,North,357,8.0,19.0,76,0.00,,,-99.99,58.000000,,2013-04-10 00:12:00,
2013-04-09 20:43:00,29.0,22.0,-100.00,North,357,8.0,19.0,76,0.00,,,-99.99,58.000000,,2013-04-10 00:43:00,
2013-04-09 20:53:00,29.0,22.0,-100.00,North,357,8.0,19.0,76,0.00,,,-99.99,58.000000,,2013-04-10 00:53:00,
2013-04-09 21:02:00,29.0,22.0,-100.00,North,357,8.0,19.0,76,0.00,,,-99.99,58.000000,,2013-04-10 01:02:00,
2013-04-09 21:12:00,29.0,22.0,-100.00,North,357,7.0,20.0,75,0.00,,,0.00,2.000000,,2013-04-10 01:12:00,
2013-04-09 21:33:00,29.0,22.0,-100.00,North,357,7.0,20.0,75,0.00,,,0.00,2.000000,,2013-04-10 01:33:00,
2013-04-09 21:43:00,29.0,22.0,-100.00,North,357,7.0,20.0,75,0.00,,,0.00,2.000000,,2013-04-10 01:43:00,
2013-04-09 21:53:00,29.0,22.0,-100.00,North,357,7.0,20.0,75,0.00,,,0.00,2.000000,,2013-04-10 01:53:00,
2013-04-09 22:02:00,29.0,22.0,-100.00,North,357,7.0,20.0,75,0.00,,,0.00,2.000000,,2013-04-10 02:02:00,
2013-04-09 22:12:00,29.0,22.0,-100.00,North,9,7.0,17.0,75,0.00,,,0.00,0.000000,,2013-04-10 02:12:00,
2013-04-09 22:33:00,29.0,22.0,-100.00,North,9,7.0,17.0,75,0.00,,,0.00,0.000000,,2013-04-10 02:33:00,
2013-04-09 22:43:00,29.0,22.0,-100.00,North,9,7.0,17.0,75,0.00,,,0.00,0.000000,,2013-04-10 02:43:00,
2013-04-09 22:53:00,29.0,22.0,-100.00,North,9,7.0,17.0,75,0.00,,,0.00,0.000000,,2013-04-10 02:53:00,
2013-04-09 23:03:00,29.0,22.0,-100.00,North,9,7.0,17.0,75,0.00,,,0.00,0.000000,,2013-04-10 03:03:00,
2013-04-09 23:12:00,29.0,22.0,-100.00,NNE,20,7.0,16.0,75,0.00,,,0.00,0.000000,,2013-04-10 03:12:00,
2013-04-09 23:43:00,29.0,22.0,-100.00,NNE,20,7.0,16.0,75,0.00,,,0.00,0.000000,,2013-04-10 03:43:00,
2013-04-09 23:53:00,29.0,22.0,-100.00,NNE,20,7.0,16.0,75,0.00,,,0.00,0.000000,,2013-04-10 03:53:00,